Tehachapi, CA

7:24 AM PDT on June 24, 2017 (GMT -0700)
Tehachapi Municipal

Weather History for KTSP - May, 2013

Change the Weather History Date:

Thursday, May 30, 2013

  Actual Average Record
Temperature  
Mean Temperature 58 °F -  
Max Temperature 73 °F 74 °F 89 °F (2015)
Min Temperature 44 °F 48 °F 39 °F (2014)
Degree Days  
Heating Degree Days 6    
Growing Degree Days 8 (Base 50)    
Moisture  
Dew Point 41 °F    
Average Humidity 49    
Maximum Humidity 76    
Minimum Humidity 29    
Precipitation  
Precipitation 0.00 in - - ()
Sea Level Pressure  
Sea Level Pressure 30.00 in    
Wind  
Wind Speed 15 mph (WNW)    
Max Wind Speed 24 mph    
Max Gust Speed 30 mph    
Visibility 10 miles    
Events      
Averages and records for this station are not official NWS values.
T = Trace of Precipitation, MM = Missing Value Source: NWS Daily Summary

Daily Weather History Graph

Daily Weather History Graph

Search for Another Location

Airport or City:

Trip Planner

Search our weather history database for the weather conditions in past years. The results will help you decide how hot, cold, wet, or windy it might be!

Date:

Astronomy

May. 30, 2013 Rise Set
Actual Time 5:41 AM PDT 8:01 PM PDT
Civil Twilight 5:12 AM PDT 8:31 PM PDT
Nautical Twilight 4:36 AM PDT 9:06 PM PDT
Astronomical Twilight 3:57 AM PDT 9:46 PM PDT
Moon 12:13 AM PDT (5/30) 11:46 AM PDT (5/30)
Length of Visible Light 15h 18m
Length of Day
14h 20m
Waning Gibbous, 61% of the Moon is Illuminated
May 30
Waning Gibbous
May 31
Last Quarter
Jun 8
New
Jun 16
First Quarter
Jun 23
Full

Hourly Weather History & Observations

Time (PDT) Temp. Windchill Dew Point Humidity Pressure Visibility Wind Dir Wind Speed Gust Speed Precip Events Conditions
12:15 AM 55.4 °F - 44.6 °F 67% 29.99 in 10.0 mi WNW 11.5 mph - N/A   Clear
12:35 AM 55.4 °F - 44.6 °F 67% 29.99 in 10.0 mi West 12.7 mph 18.4 mph N/A   Clear
12:55 AM 55.4 °F - 41.0 °F 58% 29.99 in 10.0 mi West 12.7 mph 20.7 mph N/A   Clear
1:15 AM 53.6 °F - 39.2 °F 58% 29.99 in 10.0 mi West 16.1 mph 20.7 mph N/A   Clear
1:35 AM 53.6 °F - 39.2 °F 58% 29.99 in 10.0 mi West 15.0 mph 20.7 mph N/A   Clear
1:55 AM 51.8 °F - 39.2 °F 62% 29.98 in 10.0 mi WNW 15.0 mph - N/A   Clear
2:15 AM 53.6 °F - 37.4 °F 54% 29.98 in 10.0 mi WNW 16.1 mph 20.7 mph N/A   Clear
2:35 AM 53.6 °F - 37.4 °F 54% 29.99 in 10.0 mi WNW 17.3 mph 20.7 mph N/A   Clear
2:55 AM 51.8 °F - 37.4 °F 58% 29.99 in 10.0 mi WNW 15.0 mph 19.6 mph N/A   Clear
3:15 AM 51.8 °F - 39.2 °F 62% 29.99 in 10.0 mi West 12.7 mph - N/A   Clear
3:35 AM 50.0 °F - 39.2 °F 66% 29.98 in 10.0 mi WNW 12.7 mph - N/A   Clear
3:55 AM 48.2 °F - 39.2 °F 71% 29.98 in 10.0 mi WNW 10.4 mph - N/A   Clear
4:15 AM 48.2 °F - 39.2 °F 71% 29.98 in 10.0 mi NW 6.9 mph - N/A   Clear
4:35 AM 48.2 °F - 39.2 °F 71% 29.97 in 10.0 mi WNW 9.2 mph - N/A   Clear
4:55 AM 50.0 °F - 37.4 °F 62% 29.97 in 10.0 mi WNW 8.1 mph - N/A   Clear
5:15 AM 46.4 °F 44.3 °F 39.2 °F 76% 29.96 in 10.0 mi NNW 4.6 mph - N/A   Clear
5:35 AM 46.4 °F 43.5 °F 39.2 °F 76% 29.96 in 10.0 mi NNW 5.8 mph - N/A   Clear
5:55 AM 44.6 °F - 37.4 °F 76% 29.97 in 10.0 mi Calm Calm - N/A   Clear
6:15 AM 48.2 °F - 39.2 °F 71% 29.98 in 10.0 mi West 3.5 mph - N/A   Clear
6:35 AM 53.6 °F - 41.0 °F 62% 29.98 in 10.0 mi WNW 9.2 mph - N/A   Clear
6:55 AM 53.6 °F - 41.0 °F 62% 29.98 in 10.0 mi NW 10.4 mph - N/A   Clear
7:15 AM 55.4 °F - 41.0 °F 58% 29.99 in 10.0 mi WNW 11.5 mph - N/A   Clear
7:35 AM 55.4 °F - 41.0 °F 58% 29.99 in 10.0 mi WNW 11.5 mph - N/A   Clear
7:55 AM 55.4 °F - 41.0 °F 58% 30.00 in 10.0 mi West 11.5 mph - N/A   Clear
8:15 AM 57.2 °F - 41.0 °F 55% 30.00 in 10.0 mi WNW 13.8 mph - N/A   Clear
8:35 AM 59.0 °F - 41.0 °F 51% 30.00 in 10.0 mi NW 15.0 mph 18.4 mph N/A   Clear
8:55 AM 60.8 °F - 41.0 °F 48% 30.00 in 10.0 mi NW 15.0 mph 18.4 mph N/A   Clear
9:15 AM 62.6 °F - 41.0 °F 45% 30.00 in 10.0 mi NW 16.1 mph 19.6 mph N/A   Clear
9:35 AM 62.6 °F - 41.0 °F 45% 30.00 in 10.0 mi NW 16.1 mph 20.7 mph N/A   Clear
9:55 AM 64.4 °F - 41.0 °F 42% 30.00 in 10.0 mi NW 16.1 mph - N/A   Clear
10:15 AM 64.4 °F - 42.8 °F 45% 30.00 in 10.0 mi NW 19.6 mph 24.2 mph N/A   Clear
10:35 AM 64.4 °F - 44.6 °F 49% 30.01 in 10.0 mi NW 18.4 mph 25.3 mph N/A   Clear
10:55 AM 66.2 °F - 44.6 °F 46% 30.01 in 9.0 mi NW 17.3 mph 21.9 mph N/A   Clear
11:15 AM 66.2 °F - 44.6 °F 46% 30.02 in 10.0 mi NW 17.3 mph 23.0 mph N/A   Clear
11:35 AM 66.2 °F - 44.6 °F 46% 30.02 in 10.0 mi NNW 18.4 mph 23.0 mph N/A   Clear
11:55 AM 66.2 °F - 44.6 °F 46% 30.02 in 10.0 mi NW 18.4 mph 23.0 mph N/A   Clear
12:15 PM 68.0 °F - 44.6 °F 43% 30.02 in 10.0 mi NNW 20.7 mph 27.6 mph N/A   Clear
12:35 PM 68.0 °F - 44.6 °F 43% 30.02 in 10.0 mi NNW 19.6 mph 24.2 mph N/A   Clear
12:55 PM 68.0 °F - 44.6 °F 43% 30.02 in 10.0 mi NW 15.0 mph 19.6 mph N/A   Clear
1:15 PM 69.8 °F - 44.6 °F 40% 30.02 in 10.0 mi NW 16.1 mph 24.2 mph N/A   Clear
1:35 PM 71.6 °F - 44.6 °F 38% 30.01 in 9.0 mi NW 17.3 mph 23.0 mph N/A   Clear
1:55 PM 69.8 °F - 44.6 °F 40% 30.02 in 10.0 mi NW 19.6 mph 26.5 mph N/A   Clear
2:15 PM 71.6 °F - 42.8 °F 35% 30.02 in 10.0 mi NNW 20.7 mph 25.3 mph N/A   Clear
2:35 PM 71.6 °F - 41.0 °F 33% 30.01 in 10.0 mi NW 19.6 mph 27.6 mph N/A   Clear
2:55 PM 71.6 °F - 41.0 °F 33% 30.01 in 10.0 mi NW 17.3 mph 25.3 mph N/A   Clear
3:15 PM 73.4 °F - 39.2 °F 29% 30.00 in 10.0 mi NW 17.3 mph 24.2 mph N/A   Clear
3:35 PM 73.4 °F - 39.2 °F 29% 30.00 in 10.0 mi NW 17.3 mph 26.5 mph N/A   Clear
3:55 PM 73.4 °F - 39.2 °F 29% 29.99 in 10.0 mi NW 20.7 mph 27.6 mph N/A   Clear
4:15 PM 71.6 °F - 39.2 °F 31% 29.99 in 10.0 mi NW 19.6 mph 27.6 mph N/A   Clear
4:35 PM 71.6 °F - 39.2 °F 31% 29.99 in 10.0 mi NW 19.6 mph 27.6 mph N/A   Clear
4:55 PM 71.6 °F - 39.2 °F 31% 29.98 in 10.0 mi NW 19.6 mph 27.6 mph N/A   Clear
5:15 PM 71.6 °F - 39.2 °F 31% 29.98 in 10.0 mi NW 20.7 mph 27.6 mph N/A   Clear
5:35 PM 69.8 °F - 41.0 °F 35% 29.98 in 10.0 mi NW 24.2 mph 29.9 mph N/A   Clear
5:55 PM 69.8 °F - 39.2 °F 33% 29.98 in 10.0 mi NW 21.9 mph 27.6 mph N/A   Clear
6:15 PM 68.0 °F - 41.0 °F 37% 29.98 in 10.0 mi NW 23.0 mph 29.9 mph N/A   Clear
6:35 PM 68.0 °F - 41.0 °F 37% 29.99 in 10.0 mi NW 21.9 mph 27.6 mph N/A   Clear
6:55 PM 68.0 °F - 41.0 °F 37% 29.99 in 10.0 mi NW 21.9 mph 27.6 mph N/A   Clear
7:15 PM 66.2 °F - 41.0 °F 40% 30.00 in 10.0 mi NW 20.7 mph 29.9 mph N/A   Clear
7:35 PM 66.2 °F - 41.0 °F 40% 30.00 in 10.0 mi WNW 20.7 mph 26.5 mph N/A   Clear
7:55 PM 64.4 °F - 41.0 °F 42% 30.00 in 10.0 mi West 20.7 mph - N/A   Clear
8:15 PM 62.6 °F - 41.0 °F 45% 30.00 in 10.0 mi West 18.4 mph 26.5 mph N/A   Clear
8:35 PM 62.6 °F - 41.0 °F 45% 30.01 in 10.0 mi WNW 19.6 mph - N/A   Clear
8:55 PM 62.6 °F - 41.0 °F 45% 30.01 in 10.0 mi West 20.7 mph - N/A   Clear
9:15 PM 60.8 °F - 41.0 °F 48% 30.02 in 10.0 mi West 18.4 mph 25.3 mph N/A   Clear
9:35 PM 60.8 °F - 41.0 °F 48% 30.02 in 10.0 mi West 18.4 mph 27.6 mph N/A   Clear
9:55 PM 62.6 °F - 39.2 °F 42% 30.03 in 10.0 mi WNW 18.4 mph 28.8 mph N/A   Clear
10:15 PM 60.8 °F - 39.2 °F 45% 30.03 in 10.0 mi West 17.3 mph 24.2 mph N/A   Clear
10:35 PM 59.0 °F - 39.2 °F 48% 30.03 in 10.0 mi West 17.3 mph - N/A   Clear
10:55 PM 59.0 °F - 39.2 °F 48% 30.04 in 10.0 mi West 16.1 mph 23.0 mph N/A   Clear
11:15 PM 60.8 °F - 39.2 °F 45% 30.03 in 10.0 mi WNW 19.6 mph 28.8 mph N/A   Clear
11:35 PM 60.8 °F - 39.2 °F 45% 30.03 in 10.0 mi WNW 17.3 mph 25.3 mph N/A   Clear
11:55 PM 59.0 °F - 39.2 °F 48% 30.03 in 10.0 mi WNW 17.3 mph 26.5 mph N/A   Clear